Location: Altr�tti
(47.1238°N, 9.5241°E)
Time: 23:16:14
(UTC+00:00)

Daily predictions for brighter satellites

Satellite Brightness Start Highest point End
(mag) Time Altitude Azimuth Time Altitude Azimuth Time Altitude Azimuth
Lacrosse 5 rocket 1.5 17:24:50 10° NW 17:29:18 74° NE 17:33:34 10° ESE
CSL-04 DEB 4.3 17:26:40 10° NNE 17:30:34 63° ESE 17:34:28 10° S
Sich 1 4.1 17:27:57 10° SE 17:31:25 24° E 17:34:56 10° NE
Cosmos 1452 Rocket 3.5 17:27:52 10° S 17:33:04 69° ESE 17:38:19 10° NNE
Cosmos 44 3.6 17:28:23 10° NNW 17:33:50 67° NE 17:39:13 10° SE
Cosmos 2082 3.7 17:29:06 10° NNW 17:34:45 79° ENE 17:40:23 10° SSE
CZ-4B R/B 1.0 17:34:37 10° NNE 17:37:39 76° ESE 17:40:41 10° S
Cosmos 1867 4.3 17:35:49 10° S 17:40:39 34° ESE 17:45:31 10° NE
Cosmos 1741 Rocket 4.0 17:37:47 10° NNW 17:43:10 81° ENE 17:48:29 10° SSE
Cosmos 1437 3.9 17:44:22 10° NNE 17:46:36 20° ENE 17:48:50 10° ESE
Cosmos 1697 Rocket 2.7 17:41:27 10° SSW 17:47:07 84° ESE 17:52:48 10° NNE
Cosmos 1633 Rocket 4.4 17:44:29 10° SE 17:47:31 18° E 17:50:34 10° NE
Cosmos 2360 4.2 17:42:26 10° SSW 17:48:05 71° ESE 17:53:47 10° NNE
RESURS DK-1 3.9 17:44:52 10° NW 17:48:44 39° WSW 17:52:35 10° S
ERS-2 2.6 17:46:15 10° NNE 17:49:41 37° E 17:53:06 10° S
USA 234 3.5 17:43:23 10° ENE 17:49:48 55° SE 17:56:12 10° SSW
Cosmos 1110 Rocket 4.3 17:45:15 10° S 17:50:19 47° ESE 17:55:24 10° NNE
MOS 1 Rocket 3.8 17:46:07 10° N 17:50:55 71° WNW 17:56:00 10° SSW
SL-16 R/B 3.7 17:49:07 10° SE 17:52:15 15° E 17:55:08 11° ENE
IRS-1C Rocket 4.2 17:47:22 10° SSE 17:52:39 88° WSW 17:57:57 10° NNW
Okean O Rocket 4.1 17:52:51 10° SSW 17:56:30 26° W 18:00:11 10° NW
PSLV R/B 3.9 17:54:30 10° NNE 17:58:36 59° E 18:02:38 10° S
NOSS 2-1 (E) 4.3 17:53:58 10° NW 17:58:51 63° NE 18:05:47 10° SE
SAR-Lupe-4 3.9 17:55:27 10° NNE 17:58:54 43° E 18:02:19 10° S
Cosmos 2369 3.7 17:53:19 10° SSW 17:58:58 83° ESE 18:04:41 10° NNE
USA 305 3.2 17:55:41 10° SW 17:59:49 49° SE 18:03:06 15° ENE
Cosmos 1607 4.4 17:56:52 10° SW 18:03:15 68° NW 18:09:45 10° NE
SeaSat 1 2.4 18:00:39 10° NNE 18:05:37 74° ESE 18:10:32 10° SSW
Ariane Rocket 4.2 18:03:13 15° E 18:05:50 22° ENE 18:09:42 10° N
CZ-4 R/B 1.5 18:02:40 10° S 18:06:30 73° WSW 18:10:23 10° NNW
USA 307 3.1 18:03:26 10° SW 18:07:36 53° SE 18:10:33 18° ENE
Cosmos 2263 Rocket 2.4 18:03:12 10° NNW 18:08:37 50° ENE 18:14:00 10° SE
Cosmos 2074 Rocket 4.1 18:06:42 10° SSE 18:12:44 51° E 18:18:45 10° NNE
FALCON 9 DEB 3.0 18:10:46 10° SW 18:13:54 58° SE 18:15:24 27° ENE
USA 306 3.0 18:09:44 10° SW 18:13:57 61° SE 18:16:44 20° ENE
Cosmos 2227 Rocket 4.4 18:11:16 10° NW 18:16:04 29° WSW 18:20:49 10° SSW
SAR-Lupe-1 3.9 18:13:20 10° NNE 18:16:57 75° ESE 18:20:31 10° S
USA 308 2.9 18:13:37 10° SW 18:17:51 62° SE 18:20:26 22° ENE
Cosmos 1805 Rocket 3.6 18:16:06 10° S 18:20:28 85° WNW 18:24:53 10° N
Cosmos 2184 Rocket 3.9 18:19:17 10° S 18:25:19 61° E 18:31:24 10° NNE
Meteor 1-27 Rocket 4.0 18:20:04 10° NNW 18:25:35 70° W 18:31:04 10° S
H-2A R/B 2.8 18:20:54 10° S 18:26:14 60° W 18:31:39 10° NNW
ARGOS 3.2 18:21:35 10° SSE 18:27:00 82° WSW 18:32:29 10° NNW
Cosmos 2228 Rocket 4.3 18:24:12 10° NNW 18:28:33 45° W 18:32:49 10° SSW
SJ-6B 3.6 18:28:39 29° E 18:29:38 34° ENE 18:33:22 10° N
OBJECT-B 2.8 18:32:13 16° NNE 18:32:13 16° NNE 18:33:12 10° NNE
Cosmos 2278 3.7 18:25:40 10° SSW 18:31:21 88° WNW 18:37:06 10° NNE
Cosmos 1271 Rocket 2.5 18:27:38 10° N 18:31:24 70° E 18:35:06 10° SSE
SL-08 RB Rocket 3.6 18:27:21 10° SSE 18:31:51 83° ENE 18:36:24 10° NNW
COSMOS 2455 3.0 18:26:08 10° NW 18:32:10 75° WSW 18:38:08 10° SSE
FALCON 9 DEB 2.8 18:29:26 10° WSW 18:32:37 89° NNW 18:33:29 45° ENE
Meteor 1-25 Rocket 4.3 18:28:17 10° S 18:33:57 59° E 18:39:36 10° NNE
GP-B 3.6 18:33:07 28° ESE 18:34:31 35° E 18:38:34 10° NNE
HJ-1C 4.0 18:31:26 10° S 18:34:42 56° W 18:38:00 10° NNW
Cosmos 1461 3.8 18:32:54 10° S 18:37:05 32° ESE 18:37:22 32° ESE
MetOp-A 4.2 18:32:30 10° SSE 18:37:43 57° ENE 18:42:58 10° N
CZ-2C R/B 2.6 18:32:21 10° NNE 18:37:57 77° ESE 18:43:24 10° S
Okean 1 3.6 18:34:15 10° N 18:38:06 43° ENE 18:38:49 39° ESE
Cosmos 1689 Rocket 3.2 18:35:26 10° N 18:38:10 42° WNW 18:40:55 10° SW
Cosmos 1602 3.9 18:34:31 10° SSE 18:38:13 46° E 18:41:58 10° NNE
FALCON 9 DEB 4.5 18:36:27 10° WNW 18:39:31 29° N 18:40:27 25° NNE
Cosmos 44 Rocket 4.3 18:35:10 10° NNW 18:39:55 33° NE 18:41:15 29° ENE
CSL-04 Debris 4.4 18:34:52 10° S 18:40:16 72° WSW 18:45:45 10° NNW
Cosmos 1666 Rocket 3.4 18:38:00 10° S 18:42:21 78° E 18:46:42 10° NNE
ATLAS 5 CENTAUR R/B 4.0 18:28:35 10° WSW 18:42:55 53° NW 18:46:35 13° NNE
Cosmos 2084 4.0 18:38:52 10° SW 18:43:01 58° NW 18:46:18 16° NNE
Cosmos 1862 Rocket 3.6 18:38:39 10° N 18:43:06 57° ENE 18:45:35 25° SSE
BREEZE-M DEB (TANK) 2.0 18:43:20 10° W 18:45:36 61° N 18:46:16 46° NE
Cosmos 1844 Rocket 3.7 18:41:51 10° N 18:46:30 26° NE 18:47:04 26° ENE
Cosmos 1331 Rocket 4.3 18:41:19 10° SSW 18:46:35 68° WNW 18:51:51 10° NNE
Gbstr 26 Del rocket 3.2 18:42:54 10° SW 18:47:21 73° SSE 18:49:30 36° ENE
CSL-04 Rocket 4.0 18:42:08 10° S 18:47:40 68° WSW 18:53:13 10° NNW
Cosmos 1486 Rocket 4.2 18:43:36 10° NNW 18:48:45 51° ENE 18:50:25 37° ESE
Helios 1A Rocket 4.3 18:53:05 10° SSW 18:56:55 39° W 19:00:45 10° NNW
FALCON 9 DEB 3.2 18:53:56 10° WSW 18:56:59 66° NW 18:56:59 66° NW
SL-4 R/B 2.2 18:59:52 10° W 19:03:17 46° NNW 19:03:19 46° N
FALCON 9 DEB 3.8 19:02:29 10° W 19:05:10 47° NW 19:05:10 47° NW
Cosmos 1980 Rocket 3.1 19:01:22 10° SW 19:06:50 48° NW 19:12:21 10° NNE
APEX 4.2 19:04:01 10° NNW 19:05:43 29° NNW 19:05:43 29° NNW
Lacrosse 5 rocket 3.7 19:04:47 10° WNW 19:08:02 21° SW 19:11:00 11° S
Cosmos 1302 Rocket 4.1 19:09:25 10° SSW 19:14:36 75° WNW 19:19:50 10° NNE
Cosmos 2322 Rocket 2.4 19:10:39 10° S 19:15:03 47° SSE 19:15:03 47° SSE
Cosmos 968 Rocket 3.4 19:12:22 10° NNW 19:17:39 85° WSW 19:19:11 48° SSE
Cosmos 1867 4.4 19:18:50 10° WSW 19:24:05 48° NW 19:28:06 17° NNE
Cosmos 1503 Rocket 4.2 19:19:07 10° NNW 19:23:43 55° NE 19:23:43 55° NE
Cosmos 1633 Rocket 4.0 19:20:41 10° SSW 19:24:55 47° WNW 19:29:13 10° N
USA 234 3.6 19:29:24 28° NE 19:32:52 60° NNW 19:39:17 10° WSW
SL-16 R/B 2.1 19:29:51 10° SSW 19:35:31 88° WNW 19:37:14 48° NNE
USA 305 3.9 19:35:42 10° W 19:39:14 44° NW 19:39:14 44° NW
Resurs 01 Rocket 3.4 19:44:37 24° N 19:44:37 24° N 19:46:24 10° N
Ariane Rocket 3.4 19:43:24 50° SW 19:44:23 59° WSW 19:49:27 10° NNW
USA 307 4.2 19:43:35 10° W 19:46:43 38° WNW 19:46:43 38° WNW
Cosmos 2263 Rocket 3.9 19:47:35 10° NW 19:52:16 28° WSW 19:55:56 14° SSW
USA 306 4.5 19:50:01 10° W 19:52:52 33° WNW 19:52:52 33° WNW
OBJECT-B 4.3 20:05:18 10° NW 20:05:18 10° NW 20:05:19 10° NW
Meteor 2-4 Rocket 4.5 20:05:51 10° NNW 20:11:23 50° W 20:11:52 49° WSW
BREEZE-M DEB (TANK) 4.4 20:03:49 10° W 20:17:21 73° WSW 20:17:21 73° WSW
USA 281 4.5 20:22:43 29° NNE 20:22:43 29° NNE 20:26:28 10° NNW
Cosmos 2278 Rocket 4.2 20:24:33 10° NNW 20:26:30 19° N 20:26:30 19° N
Cosmos 1844 Rocket 3.9 20:25:19 10° NNW 20:28:45 37° NW 20:28:45 37° NW
Cosmos 2322 Rocket 4.5 20:55:35 10° WSW 20:57:04 17° W 20:57:04 17° W
